When you browse on this site, cookies collect data to enhance your experience and personalize the content and advertising you see.
Visit our Privacy Policy to learn more. By continuing to use the site, you agree to this use of cookies and data.
  • In Czech Republic
  • List of Countries
  • For 7 days
  • Water Temperature
  • Satellite Maps
  • Weather Map
  • Weather Widgets
  • user-avatar
    Login

    Hourly Weather Denver

    Today, 16 January, Wednesday

    Time Temperature Precipitation Wind Pressure Humidity
    00:00 +3°C° 0.1 mm 2 mps 625 mmHg 61%
    01:00 +3°C° 0.1 mm 2 mps 624 mmHg 65%
    02:00 +3°C° 0.1 mm 2 mps 624 mmHg 68%
    03:00 +2°C° 0 mm 2 mps 624 mmHg 69%
    04:00 +3°C° 0 mm 1 mps 623 mmHg 70%
    05:00 +3°C° 0 mm 1 mps 623 mmHg 71%
    06:00 +3°C° 0 mm 1 mps 623 mmHg 70%
    07:00 +3°C° 0 mm 1 mps 623 mmHg 70%
    08:00 +3°C° 0 mm 1 mps 623 mmHg 69%
    09:00 +4°C° 0 mm 1 mps 623 mmHg 64%
    10:00 +6°C° 0 mm 1 mps 623 mmHg 58%
    11:00 +8°C° 0 mm 1 mps 623 mmHg 53%
    12:00 +9°C° 0 mm 1 mps 623 mmHg 50%
    13:00 +10°C° 0 mm 1 mps 623 mmHg 46%
    14:00 +10°C° 0 mm 2 mps 623 mmHg 42%
    15:00 +8°C° 0 mm 2 mps 623 mmHg 46%
    16:00 +7°C° 0 mm 2 mps 623 mmHg 49%
    17:00 +5°C° 0 mm 2 mps 623 mmHg 52%
    18:00 +5°C° 0 mm 2 mps 624 mmHg 53%
    19:00 +4°C° 0 mm 2 mps 624 mmHg 54%
    20:00 +3°C° 0 mm 2 mps 625 mmHg 55%
    21:00 +3°C° 0 mm 2 mps 625 mmHg 55%
    22:00 +2°C° 0 mm 2 mps 625 mmHg 55%
    23:00 +2°C° 0 mm 2 mps 626 mmHg 56%

    Tomorrow, 17 January, Thursday

    Time Temperature Precipitation Wind Pressure Humidity
    00:00 +1°C° 0 mm 3 mps 626 mmHg 55%
    01:00 0°C° 0 mm 3 mps 626 mmHg 55%
    02:00 0°C° 0 mm 3 mps 626 mmHg 55%
    03:00 0°C° 0 mm 3 mps 626 mmHg 55%
    04:00 0°C° 0 mm 3 mps 626 mmHg 55%
    05:00 0°C° 0 mm 3 mps 626 mmHg 55%
    06:00 0°C° 0 mm 3 mps 626 mmHg 55%
    07:00 +1°C° 0 mm 3 mps 627 mmHg 54%
    08:00 +1°C° 0 mm 3 mps 627 mmHg 54%
    09:00 +3°C° 0 mm 3 mps 626 mmHg 48%
    10:00 +5°C° 0 mm 3 mps 626 mmHg 43%
    11:00 +9°C° 0 mm 3 mps 626 mmHg 37%
    12:00 +10°C° 0 mm 3 mps 626 mmHg 36%
    13:00 +11°C° 0 mm 3 mps 625 mmHg 34%
    14:00 +12°C° 0 mm 3 mps 625 mmHg 32%
    15:00 +10°C° 0 mm 3 mps 624 mmHg 39%
    16:00 +8°C° 0 mm 2 mps 623 mmHg 46%
    17:00 +7°C° 0 mm 2 mps 623 mmHg 52%
    18:00 +6°C° 0 mm 2 mps 622 mmHg 55%
    19:00 +5°C° 0 mm 3 mps 622 mmHg 57%
    20:00 +5°C° 0 mm 3 mps 622 mmHg 59%
    21:00 +4°C° 0 mm 3 mps 621 mmHg 58%
    22:00 +4°C° 0 mm 3 mps 620 mmHg 58%
    23:00 +3°C° 0 mm 3 mps 620 mmHg 57%

    Day after tomorrow, 18 January, Friday

    Time Temperature Precipitation Wind Pressure Humidity
    00:00 +3°C° 0 mm 3 mps 619 mmHg 57%
    01:00 +3°C° 0 mm 3 mps 618 mmHg 57%
    02:00 +3°C° 0 mm 2 mps 618 mmHg 58%
    03:00 +3°C° 0 mm 2 mps 617 mmHg 58%
    04:00 +3°C° 0 mm 2 mps 617 mmHg 58%
    05:00 +3°C° 0 mm 2 mps 617 mmHg 58%
    06:00 +3°C° 0 mm 2 mps 617 mmHg 58%
    07:00 +3°C° 0 mm 2 mps 618 mmHg 58%
    08:00 +3°C° 0 mm 2 mps 619 mmHg 58%
    09:00 +3°C° 0.1 mm 4 mps 620 mmHg 55%
    10:00 +3°C° 0.1 mm 5 mps 621 mmHg 51%
    11:00 +4°C° 0.1 mm 6 mps 622 mmHg 47%
    12:00 +4°C° 0 mm 7 mps 622 mmHg 45%
    13:00 +4°C° 0 mm 7 mps 623 mmHg 42%
    14:00 +5°C° 0 mm 8 mps 623 mmHg 40%
    15:00 +4°C° 0 mm 7 mps 624 mmHg 42%
    16:00 +3°C° 0 mm 6 mps 624 mmHg 45%
    17:00 +2°C° 0 mm 5 mps 625 mmHg 47%
    18:00 +1°C° 0 mm 4 mps 626 mmHg 49%
    19:00 +1°C° 0 mm 3 mps 626 mmHg 50%
    20:00 +1°C° 0 mm 2 mps 627 mmHg 52%
    21:00 +1°C° 0 mm 2 mps 628 mmHg 51%
    22:00 +1°C° 0 mm 2 mps 628 mmHg 51%
    23:00 +1°C° 0 mm 2 mps 629 mmHg 50%

    19 January, Saturday

    Time Temperature Precipitation Wind Pressure Humidity
    00:00 -1°C° 0 mm 2 mps 629 mmHg 50%
    01:00 -1°C° 0 mm 2 mps 629 mmHg 49%
    02:00 -1°C° 0 mm 2 mps 629 mmHg 49%
    03:00 -1°C° 0 mm 2 mps 630 mmHg 48%
    04:00 -1°C° 0 mm 2 mps 630 mmHg 47%
    05:00 -1°C° 0 mm 2 mps 630 mmHg 47%
    06:00 -1°C° 0 mm 2 mps 631 mmHg 45%
    07:00 -1°C° 0 mm 2 mps 631 mmHg 43%
    08:00 -1°C° 0 mm 3 mps 632 mmHg 41%
    09:00 +2°C° 0 mm 2 mps 632 mmHg 35%
    10:00 +5°C° 0 mm 2 mps 631 mmHg 28%
    11:00 +7°C° 0 mm 2 mps 631 mmHg 22%
    12:00 +8°C° 0 mm 3 mps 631 mmHg 24%
    13:00 +9°C° 0 mm 3 mps 630 mmHg 26%
    14:00 +10°C° 0 mm 4 mps 630 mmHg 27%
    15:00 +8°C° 0 mm 3 mps 630 mmHg 33%
    16:00 +7°C° 0 mm 2 mps 630 mmHg 39%
    17:00 +5°C° 0 mm 2 mps 630 mmHg 45%
    18:00 +5°C° 0 mm 2 mps 630 mmHg 47%
    19:00 +4°C° 0 mm 2 mps 631 mmHg 49%
    20:00 +4°C° 0 mm 2 mps 632 mmHg 50%
    21:00 +3°C° 0 mm 2 mps 632 mmHg 51%
    22:00 +2°C° 0 mm 3 mps 632 mmHg 52%
    23:00 +2°C° 0 mm 3 mps 632 mmHg 53%

    20 January, Sunday

    Time Temperature Precipitation Wind Pressure Humidity
    00:00 +2°C° 0 mm 3 mps 631 mmHg 53%
    01:00 +2°C° 0 mm 3 mps 631 mmHg 53%
    02:00 +2°C° 0 mm 3 mps 631 mmHg 52%
    03:00 +2°C° 0 mm 3 mps 630 mmHg 53%
    04:00 +1°C° 0 mm 3 mps 630 mmHg 53%
    05:00 +2°C° 0 mm 2 mps 630 mmHg 54%
    06:00 +2°C° 0 mm 2 mps 630 mmHg 53%
    07:00 +3°C° 0 mm 2 mps 630 mmHg 51%
    08:00 +3°C° 0 mm 2 mps 630 mmHg 50%
    09:00 +5°C° 0 mm 2 mps 629 mmHg 45%
    10:00 +7°C° 0 mm 2 mps 629 mmHg 39%
    11:00 +9°C° 0 mm 2 mps 628 mmHg 34%
    12:00 +10°C° 0 mm 2 mps 628 mmHg 32%
    13:00 +12°C° 0 mm 2 mps 627 mmHg 30%
    14:00 +13°C° 0 mm 2 mps 626 mmHg 29%
    15:00 +12°C° 0 mm 2 mps 625 mmHg 34%
    16:00 +9°C° 0 mm 2 mps 624 mmHg 39%
    17:00 +8°C° 0 mm 2 mps 624 mmHg 44%
    18:00 +7°C° 0 mm 2 mps 623 mmHg 45%
    19:00 +6°C° 0 mm 2 mps 623 mmHg 47%
    20:00 +4°C° 0 mm 3 mps 622 mmHg 48%
    21:00 +4°C° 0 mm 3 mps 621 mmHg 46%
    22:00 +3°C° 0 mm 3 mps 621 mmHg 44%
    23:00 +3°C° 0 mm 3 mps 620 mmHg 42%

    21 January, Monday

    Time Temperature Precipitation Wind Pressure Humidity
    00:00 +3°C° 0 mm 3 mps 619 mmHg 40%
    01:00 +3°C° 0 mm 3 mps 618 mmHg 39%
    02:00 +3°C° 0 mm 4 mps 618 mmHg 37%
    03:00 +3°C° 0 mm 4 mps 617 mmHg 38%
    04:00 +3°C° 0 mm 4 mps 617 mmHg 38%
    05:00 +3°C° 0 mm 4 mps 617 mmHg 39%
    06:00 +3°C° 0.1 mm 4 mps 617 mmHg 42%
    07:00 +1°C° 0.1 mm 5 mps 618 mmHg 46%
    08:00 +1°C° 0.1 mm 5 mps 618 mmHg 49%
    09:00 0°C° 0 mm 7 mps 618 mmHg 41%
    10:00 0°C° 0 mm 9 mps 619 mmHg 33%
    11:00 +1°C° 0 mm 11 mps 619 mmHg 25%
    12:00 +1°C° 0 mm 11 mps 620 mmHg 26%
    13:00 +1°C° 0 mm 11 mps 620 mmHg 26%
    14:00 +1°C° 0 mm 10 mps 621 mmHg 27%
    15:00 0°C° 0 mm 10 mps 622 mmHg 29%
    16:00 -2°C° 0 mm 10 mps 623 mmHg 32%
    17:00 -3°C° 0 mm 9 mps 624 mmHg 34%
    18:00 -3°C° 0 mm 9 mps 625 mmHg 37%
    19:00 -4°C° 0 mm 9 mps 626 mmHg 40%
    20:00 -5°C° 0 mm 8 mps 627 mmHg 43%
    21:00 -5°C° 0 mm 8 mps 627 mmHg 44%
    22:00 -5°C° 0 mm 8 mps 628 mmHg 45%
    23:00 -6°C° 0 mm 7 mps 629 mmHg 46%
    Show more